QPF
0.04 0.06 0.11 0.10 0.07 0.07 0.07 0.08 0.05 0.05 0.06 0.05 0.05 0.06 0.06 0.05 0.03 0.03 0.03 0.03 0.02 0.01 0.02 0.02 0.01 0.01 0.02 0.03 0.03 0.02 0.01 0.02 0.02 0.03 0.03 0.05 0.05 0.05 0.04 0.04 0.05 0.06 0.07
0.05 0.05 0.08 0.10 0.06 0.05 0.05 0.04 0.03 0.03 0.05 0.04 0.03 0.03 0.04 0.03 0.02 0.03 0.03 0.02 0.01 0.02 0.02 0.02 0.01 0.01 0.01 0.01 0.01 0.01 0.01 0.01 0.01 0.02 0.03 0.04 0.04 0.04 0.04 0.06 0.07 0.08 0.09
0.04 0.04 0.06 0.09 0.06 0.04 0.03 0.03 0.02 0.02 0.02 0.03 0.03 0.02 0.03 0.03 0.03 0.02 0.02 0.03 0.02 0.02 0.02 0.01 0.01 0.01 0.01 0.01 0.01 0.00 0.00 0.00 0.01 0.01 0.01 0.01 0.02 0.02 0.03 0.05 0.07 0.10 0.11
0.03 0.03 0.04 0.05 0.04 0.03 0.03 0.04 0.03 0.03 0.02 0.01 0.01 0.01 0.01 0.01 0.02 0.02 0.02 0.02 0.02 0.02 0.02 0.02 0.02 0.01 0.01 0.01 0.01 0.00 0.00 0.00 0.00 0.00 0.01 0.01 0.01 0.01 0.01 0.02 0.04 0.06 0.07
0.03 0.02 0.02 0.02 0.03 0.02 0.03 0.03 0.03 0.02 0.01 0.01 0.01 0.01 0.01 0.01 0.02 0.02 0.02 0.01 0.02 0.02 0.01 0.01 0.01 0.01 0.00 0.00 0.00 0.00 0.00 0.00 0.00 0.00 0.01 0.00 0.00 0.00 0.00 0.01 0.01 0.02 0.03
0.02 0.01 0.01 0.01 0.01 0.01 0.02 0.02 0.02 0.02 0.01 0.01 0.01 0.01 0.01 0.02 0.01 0.02 0.01 0.01 0.01 0.01 0.01 0.00 0.00 0.00 0.00 0.00 0.00 0.00 0.00 0.00 0.00 0.00 0.00 0.00 0.00 0.00 0.00 0.00 0.00 0.01 0.01
0.01 0.01 0.01 0.00 0.00 0.01 0.01 0.01 0.01 0.01 0.01 0.01 0.01 0.01 0.01 0.01 0.01 0.01 0.01 0.00 0.00 0.00 0.00 0.00 0.00 0.00 0.00 0.00 0.00 0.00 0.00 0.00 0.00 0.00 0.00 0.00 0.00 0.00 0.00 0.00 0.00 0.00 0.01
0.01 0.01 0.01 0.00 0.00 0.00 0.00 0.00 0.01 0.01 0.01 0.01 0.01 0.00 0.00 0.00 0.00 0.00 0.00 0.00 0.00 0.00 0.00 0.00 0.00 0.00 0.00 0.00 0.00 0.00 0.00 0.00 0.00 0.00 0.00 0.00 0.00 0.00 0.00 0.00 0.00 0.00 0.01
0.01 0.01 0.00 0.00 0.00 0.00 0.00 0.00 0.01 0.00 0.00 0.00 0.00 0.00 0.00 0.00 0.00 0.00 0.00 0.00 0.00 0.00 0.00 0.00 0.00 0.00 0.00 0.00 0.00 0.00 0.00 0.00 0.00 0.00 0.00 0.00 0.00 0.00 0.00 0.00 0.00 0.00 0.00
0.01 0.01 0.00 0.00 0.00 0.00 0.00 0.01 0.00 0.00 0.00 0.00 0.00 0.00 0.00 0.00 0.00 0.00 0.00 0.00 0.00 0.00 0.00 0.00 0.00 0.00 0.00 0.00 0.00 0.00 0.00 0.00 0.00 0.00 0.00 0.00 0.00 0.00 0.00 0.00 0.00 0.00 0.00
0.01 0.01 0.01 0.01 0.00 0.00 0.00 0.00 0.00 0.00 0.00 0.00 0.00 0.00 0.00 0.00 0.00 0.00 0.00 0.00 0.00 0.00 0.00 0.00 0.00 0.00 0.00 0.00 0.00 0.00 0.00 0.00 0.00 0.00 0.00 0.00 0.00 0.00 0.00 0.00 0.00 0.00 0.00
0.03 0.01 0.01 0.01 0.00 0.00 0.00 0.00 0.00 0.00 0.00 0.00 0.00 0.00 0.00 0.00 0.00 0.00 0.00 0.00 0.00 0.00 0.00 0.00 0.00 0.00 0.00 0.00 0.00 0.00 0.00 0.00 0.00 0.00 0.00 0.00 0.00 0.00 0.00 0.00 0.00 0.00 0.00
0.04 0.02 0.01 0.01 0.00 0.00 0.00 0.00 0.00 0.00 0.00 0.00 0.00 0.00 0.00 0.00 0.00 0.00 0.00 0.00 0.00 0.00 0.00 0.00 0.00 0.00 0.00 0.00 0.00 0.00 0.00 0.00 0.00 0.00 0.00 0.00 0.00 0.00 0.00 0.00 0.00 0.00 0.00
0.04 0.02 0.01 0.01 0.01 0.00 0.00 0.00 0.00 0.00 0.00 0.00 0.00 0.00 0.00 0.00 0.00 0.00 0.00 0.00 0.00 0.00 0.00 0.00 0.00 0.00 0.00 0.00 0.00 0.00 0.00 0.00 0.00 0.00 0.00 0.00 0.00 0.00 0.00 0.00 0.00 0.00 0.00
0.05 0.05 0.02 0.01 0.01 0.01 0.01 0.00 0.00 0.00 0.00 0.00 0.00 0.00 0.00 0.00 0.00 0.00 0.00 0.00 0.00 0.00 0.00 0.00 0.00 0.00 0.00 0.00 0.00 0.00 0.00 0.00 0.00 0.00 0.00 0.00 0.00 0.00 0.00 0.00 0.00 0.00 0.00
0.03 0.03 0.02 0.01 0.02 0.02 0.02 0.01 0.00 0.00 0.00 0.01 0.00 0.00 0.00 0.00 0.00 0.00 0.00 0.00 0.00 0.00 0.00 0.00 0.00 0.00 0.00 0.00 0.00 0.00 0.00 0.00 0.00 0.00 0.00 0.00 0.00 0.00 0.00 0.00 0.00 0.00 0.00
0.02 0.03 0.03 0.02 0.02 0.02 0.03 0.01 0.00 0.00 0.01 0.01 0.00 0.00 0.00 0.00 0.00 0.00 0.00 0.00 0.00 0.00 0.00 0.00 0.00 0.00 0.01 0.01 0.01 0.01 0.01 0.00 0.00 0.00 0.00 0.00 0.00 0.00 0.00 0.00 0.00 0.00 0.00
0.01 0.01 0.02 0.04 0.03 0.02 0.03 0.02 0.01 0.01 0.01 0.01 0.00 0.00 0.00 0.00 0.00 0.00 0.00 0.00 0.00 0.01 0.01 0.01 0.01 0.01 0.01 0.01 0.01 0.01 0.00 0.00 0.00 0.00 0.00 0.00 0.00 0.00 0.00 0.00 0.00 0.00 0.00
0.01 0.00 0.00 0.03 0.07 0.08 0.04 0.03 0.04 0.03 0.02 0.01 0.01 0.01 0.00 0.00 0.00 0.01 0.01 0.01 0.01 0.01 0.01 0.01 0.01 0.01 0.00 0.00 0.00 0.00 0.00 0.00 0.00 0.00 0.00 0.00 0.00 0.00 0.00 0.00 0.00 0.00 0.00
0.01 0.01 0.01 0.01 0.02 0.05 0.04 0.02 0.03 0.04 0.04 0.04 0.04 0.03 0.02 0.02 0.02 0.02 0.01 0.01 0.01 0.01 0.01 0.00 0.00 0.00 0.00 0.00 0.00 0.00 0.00 0.00 0.00 0.00 0.00 0.00 0.00 0.00 0.00 0.00 0.00 0.00 0.00
0.02 0.01 0.01 0.01 0.01 0.01 0.01 0.01 0.01 0.01 0.02 0.04 0.06 0.08 0.06 0.05 0.04 0.03 0.02 0.02 0.02 0.02 0.01 0.01 0.00 0.00 0.00 0.00 0.00 0.00 0.00 0.00 0.00 0.00 0.00 0.00 0.00 0.00 0.00 0.00 0.00 0.00 0.00
0.02 0.02 0.01 0.01 0.01 0.01 0.01 0.01 0.01 0.01 0.02 0.03 0.04 0.05 0.06 0.06 0.05 0.05 0.05 0.06 0.06 0.05 0.03 0.01 0.01 0.01 0.01 0.01 0.01 0.01 0.01 0.01 0.00 0.00 0.00 0.00 0.00 0.00 0.00 0.00 0.00 0.00 0.00
0.02 0.02 0.02 0.02 0.02 0.02 0.02 0.01 0.01 0.01 0.01 0.02 0.02 0.02 0.02 0.02 0.04 0.05 0.05 0.05 0.05 0.05 0.03 0.03 0.02 0.02 0.02 0.02 0.02 0.02 0.02 0.02 0.01 0.01 0.00 0.00 0.00 0.00 0.00 0.00 0.00 0.00 0.00
0.03 0.02 0.02 0.02 0.03 0.02 0.02 0.02 0.02 0.01 0.01 0.01 0.01 0.01 0.01 0.02 0.03 0.06 0.06 0.05 0.04 0.04 0.04 0.05 0.04 0.04 0.03 0.04 0.03 0.03 0.03 0.03 0.03 0.02 0.01 0.01 0.00 0.00 0.00 0.00 0.00 0.00 0.00
0.06 0.05 0.04 0.04 0.04 0.03 0.04 0.03 0.02 0.01 0.01 0.01 0.01 0.01 0.01 0.01 0.02 0.02 0.03 0.03 0.04 0.05 0.06 0.07 0.07 0.06 0.05 0.04 0.03 0.02 0.02 0.02 0.02 0.02 0.02 0.01 0.01 0.01 0.01 0.00 0.00 0.00 0.00
0.13 0.07 0.04 0.04 0.05 0.06 0.06 0.06 0.04 0.03 0.03 0.02 0.02 0.02 0.02 0.01 0.02 0.02 0.02 0.03 0.04 0.05 0.06 0.07 0.07 0.05 0.03 0.02 0.02 0.01 0.01 0.01 0.01 0.00 0.00 0.00 0.00 0.00 0.01 0.01 0.01 0.01 0.01
MSLP
1014.04 1014.32 1014.48 1014.51 1014.45 1014.36 1014.31 1014.34 1014.50 1014.80 1015.21 1015.67 1016.14 1016.55 1016.86 1017.08 1017.20 1017.26 1017.33 1017.43 1017.60 1017.86 1018.17 1018.52 1018.85 1019.13 1019.34 1019.45 1019.49 1019.48 1019.44 1019.42 1019.42 1019.45 1019.50 1019.55 1019.55 1019.50 1019.38 1019.19 1018.96 1018.73 1018.53
1014.13 1014.47 1014.66 1014.71 1014.64 1014.51 1014.41 1014.40 1014.55 1014.85 1015.29 1015.80 1016.32 1016.77 1017.12 1017.34 1017.45 1017.49 1017.53 1017.61 1017.77 1018.03 1018.37 1018.75 1019.12 1019.43 1019.65 1019.76 1019.78 1019.73 1019.66 1019.61 1019.60 1019.64 1019.70 1019.77 1019.81 1019.78 1019.67 1019.48 1019.23 1018.96 1018.70
1014.13 1014.54 1014.80 1014.89 1014.84 1014.71 1014.59 1014.56 1014.68 1014.97 1015.41 1015.94 1016.48 1016.96 1017.33 1017.56 1017.67 1017.70 1017.72 1017.79 1017.95 1018.21 1018.57 1018.97 1019.36 1019.69 1019.92 1020.02 1020.03 1019.96 1019.87 1019.79 1019.77 1019.81 1019.90 1020.00 1020.07 1020.08 1020.00 1019.82 1019.56 1019.26 1018.96
1013.99 1014.48 1014.83 1015.00 1015.00 1014.90 1014.78 1014.74 1014.84 1015.11 1015.53 1016.05 1016.60 1017.09 1017.47 1017.72 1017.83 1017.87 1017.90 1017.97 1018.13 1018.39 1018.75 1019.16 1019.56 1019.89 1020.12 1020.23 1020.22 1020.14 1020.04 1019.96 1019.94 1019.99 1020.10 1020.23 1020.35 1020.40 1020.35 1020.20 1019.95 1019.64 1019.30
1013.67 1014.25 1014.70 1014.97 1015.06 1015.01 1014.93 1014.88 1014.96 1015.20 1015.60 1016.09 1016.63 1017.12 1017.52 1017.79 1017.93 1018.00 1018.04 1018.12 1018.29 1018.55 1018.91 1019.31 1019.70 1020.03 1020.25 1020.36 1020.35 1020.28 1020.18 1020.11 1020.10 1020.17 1020.30 1020.46 1020.61 1020.70 1020.69 1020.57 1020.35 1020.04 1019.70
1013.19 1013.85 1014.41 1014.80 1014.99 1015.03 1014.99 1014.96 1015.03 1015.23 1015.59 1016.05 1016.56 1017.06 1017.47 1017.77 1017.96 1018.07 1018.15 1018.26 1018.43 1018.69 1019.02 1019.40 1019.77 1020.08 1020.30 1020.40 1020.41 1020.36 1020.28 1020.23 1020.24 1020.33 1020.48 1020.67 1020.84 1020.96 1020.99 1020.90 1020.71 1020.43 1020.09
1012.57 1013.32 1013.99 1014.50 1014.80 1014.94 1014.96 1014.96 1015.02 1015.20 1015.51 1015.94 1016.43 1016.92 1017.36 1017.70 1017.94 1018.10 1018.22 1018.36 1018.54 1018.79 1019.10 1019.44 1019.78 1020.07 1020.27 1020.38 1020.41 1020.37 1020.33 1020.31 1020.35 1020.45 1020.61 1020.81 1021.00 1021.13 1021.19 1021.14 1020.99 1020.74 1020.43
1011.89 1012.71 1013.48 1014.10 1014.52 1014.75 1014.84 1014.88 1014.95 1015.11 1015.39 1015.78 1016.25 1016.74 1017.20 1017.58 1017.88 1018.09 1018.26 1018.43 1018.61 1018.85 1019.12 1019.43 1019.73 1019.98 1020.18 1020.29 1020.34 1020.34 1020.33 1020.34 1020.40 1020.51 1020.67 1020.86 1021.05 1021.19 1021.26 1021.24 1021.13 1020.94 1020.68
1011.22 1012.08 1012.94 1013.65 1014.18 1014.50 1014.67 1014.75 1014.84 1014.99 1015.25 1015.62 1016.07 1016.56 1017.04 1017.45 1017.80 1018.06 1018.28 1018.47 1018.66 1018.87 1019.12 1019.37 1019.63 1019.86 1020.04 1020.16 1020.23 1020.26 1020.28 1020.32 1020.39 1020.50 1020.65 1020.82 1020.98 1021.11 1021.19 1021.19 1021.12 1020.99 1020.79
1010.58 1011.48 1012.38 1013.17 1013.77 1014.18 1014.42 1014.57 1014.69 1014.86 1015.12 1015.47 1015.91 1016.40 1016.88 1017.33 1017.71 1018.01 1018.26 1018.47 1018.66 1018.86 1019.06 1019.28 1019.50 1019.70 1019.87 1020.00 1020.09 1020.16 1020.21 1020.26 1020.34 1020.44 1020.56 1020.68 1020.81 1020.91 1020.98 1021.00 1020.98 1020.90 1020.77
1009.99 1010.88 1011.80 1012.63 1013.30 1013.78 1014.10 1014.31 1014.49 1014.69 1014.97 1015.33 1015.77 1016.25 1016.74 1017.20 1017.60 1017.94 1018.20 1018.42 1018.62 1018.80 1018.98 1019.17 1019.36 1019.54 1019.70 1019.84 1019.95 1020.03 1020.11 1020.17 1020.24 1020.32 1020.40 1020.49 1020.57 1020.63 1020.68 1020.71 1020.71 1020.69 1020.64
1009.41 1010.27 1011.17 1012.01 1012.71 1013.25 1013.65 1013.95 1014.20 1014.47 1014.79 1015.17 1015.62 1016.10 1016.60 1017.06 1017.47 1017.82 1018.10 1018.33 1018.52 1018.69 1018.86 1019.03 1019.20 1019.37 1019.53 1019.67 1019.80 1019.90 1019.99 1020.07 1020.13 1020.18 1020.23 1020.26 1020.29 1020.32 1020.34 1020.36 1020.39 1020.42 1020.43
1008.79 1009.59 1010.43 1011.25 1011.96 1012.56 1013.04 1013.43 1013.78 1014.13 1014.52 1014.95 1015.42 1015.92 1016.41 1016.88 1017.29 1017.64 1017.93 1018.17 1018.37 1018.54 1018.71 1018.87 1019.03 1019.20 1019.36 1019.51 1019.65 1019.77 1019.86 1019.94 1019.99 1020.02 1020.03 1020.03 1020.01 1020.00 1020.00 1020.01 1020.05 1020.11 1020.17
1008.08 1008.78 1009.55 1010.32 1011.03 1011.67 1012.23 1012.74 1013.20 1013.66 1014.14 1014.63 1015.15 1015.66 1016.16 1016.63 1017.04 1017.39 1017.69 1017.94 1018.15 1018.34 1018.51 1018.68 1018.85 1019.01 1019.18 1019.33 1019.48 1019.60 1019.70 1019.78 1019.82 1019.84 1019.82 1019.79 1019.74 1019.70 1019.67 1019.67 1019.71 1019.78 1019.87
1007.27 1007.84 1008.51 1009.22 1009.92 1010.60 1011.25 1011.87 1012.46 1013.05 1013.63 1014.20 1014.77 1015.31 1015.82 1016.29 1016.70 1017.06 1017.37 1017.64 1017.87 1018.08 1018.28 1018.46 1018.64 1018.80 1018.97 1019.12 1019.26 1019.38 1019.48 1019.55 1019.59 1019.59 1019.57 1019.52 1019.46 1019.40 1019.36 1019.34 1019.37 1019.43 1019.53
1006.35 1006.79 1007.35 1007.99 1008.68 1009.41 1010.14 1010.87 1011.60 1012.31 1013.00 1013.67 1014.29 1014.87 1015.40 1015.87 1016.29 1016.66 1016.99 1017.28 1017.54 1017.77 1017.99 1018.19 1018.38 1018.55 1018.70 1018.84 1018.96 1019.07 1019.16 1019.22 1019.25 1019.26 1019.24 1019.19 1019.13 1019.07 1019.01 1018.98 1018.99 1019.04 1019.12
1005.36 1005.68 1006.15 1006.73 1007.41 1008.17 1008.98 1009.83 1010.68 1011.51 1012.31 1013.05 1013.73 1014.35 1014.89 1015.38 1015.80 1016.19 1016.53 1016.85 1017.14 1017.41 1017.65 1017.87 1018.05 1018.21 1018.35 1018.46 1018.56 1018.64 1018.70 1018.76 1018.79 1018.80 1018.80 1018.76 1018.72 1018.66 1018.60 1018.56 1018.54 1018.56 1018.61
1004.37 1004.59 1004.98 1005.52 1006.20 1007.00 1007.88 1008.82 1009.77 1010.70 1011.59 1012.40 1013.13 1013.77 1014.33 1014.83 1015.27 1015.66 1016.03 1016.37 1016.69 1016.99 1017.25 1017.47 1017.65 1017.79 1017.89 1017.97 1018.03 1018.07 1018.11 1018.15 1018.18 1018.20 1018.21 1018.21 1018.18 1018.14 1018.09 1018.04 1018.00 1017.98 1017.98
1003.42 1003.59 1003.93 1004.44 1005.13 1005.97 1006.91 1007.92 1008.95 1009.95 1010.90 1011.75 1012.51 1013.17 1013.74 1014.24 1014.69 1015.10 1015.48 1015.85 1016.19 1016.50 1016.77 1016.99 1017.16 1017.27 1017.34 1017.37 1017.38 1017.39 1017.40 1017.41 1017.44 1017.48 1017.51 1017.53 1017.53 1017.51 1017.47 1017.42 1017.36 1017.30 1017.26
1002.56 1002.70 1003.03 1003.56 1004.27 1005.13 1006.12 1007.18 1008.25 1009.29 1010.26 1011.14 1011.91 1012.57 1013.14 1013.64 1014.09 1014.51 1014.90 1015.28 1015.63 1015.95 1016.22 1016.43 1016.58 1016.66 1016.69 1016.68 1016.65 1016.62 1016.60 1016.60 1016.63 1016.67 1016.72 1016.77 1016.80 1016.80 1016.77 1016.72 1016.64 1016.55 1016.46
1001.79 1001.95 1002.30 1002.86 1003.60 1004.49 1005.51 1006.59 1007.68 1008.72 1009.69 1010.56 1011.32 1011.98 1012.54 1013.03 1013.48 1013.89 1014.29 1014.68 1015.03 1015.35 1015.61 1015.81 1015.93 1015.99 1015.98 1015.94 1015.88 1015.82 1015.78 1015.77 1015.80 1015.85 1015.92 1015.99 1016.03 1016.05 1016.03 1015.98 1015.88 1015.77 1015.65
1001.09 1001.31 1001.72 1002.32 1003.10 1004.02 1005.05 1006.13 1007.20 1008.23 1009.18 1010.03 1010.76 1011.39 1011.94 1012.42 1012.86 1013.28 1013.67 1014.05 1014.40 1014.70 1014.95 1015.13 1015.24 1015.27 1015.25 1015.19 1015.12 1015.04 1015.00 1014.99 1015.02 1015.08 1015.16 1015.23 1015.29 1015.32 1015.31 1015.25 1015.15 1015.01 1014.86
1000.45 1000.76 1001.25 1001.91 1002.73 1003.67 1004.70 1005.76 1006.81 1007.80 1008.71 1009.52 1010.23 1010.84 1011.37 1011.84 1012.27 1012.67 1013.06 1013.42 1013.75 1014.04 1014.27 1014.44 1014.53 1014.55 1014.53 1014.47 1014.40 1014.34 1014.30 1014.30 1014.34 1014.40 1014.48 1014.56 1014.62 1014.65 1014.63 1014.56 1014.45 1014.31 1014.14
999.90 1000.30 1000.88 1001.60 1002.46 1003.42 1004.43 1005.46 1006.46 1007.41 1008.28 1009.05 1009.72 1010.31 1010.83 1011.29 1011.72 1012.11 1012.48 1012.82 1013.13 1013.40 1013.60 1013.75 1013.83 1013.85 1013.84 1013.80 1013.75 1013.71 1013.69 1013.71 1013.76 1013.83 1013.90 1013.97 1014.02 1014.03 1014.00 1013.93 1013.81 1013.66 1013.48
999.46 999.97 1000.62 1001.40 1002.29 1003.24 1004.22 1005.21 1006.17 1007.06 1007.88 1008.62 1009.27 1009.85 1010.36 1010.82 1011.23 1011.62 1011.96 1012.28 1012.56 1012.79 1012.96 1013.09 1013.16 1013.19 1013.19 1013.17 1013.16 1013.15 1013.17 1013.21 1013.26 1013.33 1013.40 1013.45 1013.47 1013.46 1013.41 1013.32 1013.20 1013.05 1012.87
999.21 999.81 1000.53 1001.35 1002.24 1003.17 1004.11 1005.04 1005.94 1006.78 1007.56 1008.26 1008.90 1009.47 1009.98 1010.43 1010.84 1011.21 1011.54 1011.82 1012.05 1012.24 1012.38 1012.48 1012.53 1012.56 1012.58 1012.59 1012.61 1012.64 1012.68 1012.74 1012.80 1012.86 1012.91 1012.93 1012.93 1012.89 1012.81 1012.71 1012.58 1012.43 1012.26
Thickness
5736 5736 5737 5735 5731 5730 5729 5727 5726 5726 5726 5725 5722 5720 5719 5720 5721 5721 5721 5721 5721 5722 5722 5721 5720 5719 5717 5716 5716 5714 5713 5711 5711 5709 5706 5708 5710 5711 5712 5713 5713 5713 5713
5732 5732 5732 5731 5729 5727 5726 5725 5725 5725 5725 5724 5723 5721 5719 5718 5718 5718 5718 5719 5719 5719 5718 5717 5716 5715 5714 5712 5712 5711 5708 5707 5707 5704 5699 5696 5698 5703 5708 5708 5709 5709 5710
5732 5730 5729 5728 5727 5725 5725 5726 5724 5724 5723 5723 5721 5719 5716 5714 5713 5713 5714 5716 5716 5716 5715 5714 5714 5712 5711 5708 5708 5707 5705 5701 5702 5702 5698 5691 5688 5692 5698 5701 5703 5704 5704
5734 5730 5729 5728 5727 5726 5725 5724 5723 5722 5722 5722 5720 5716 5713 5709 5710 5711 5712 5713 5714 5713 5712 5712 5711 5709 5708 5706 5705 5704 5702 5700 5697 5697 5697 5696 5694 5689 5687 5692 5696 5698 5699
5737 5733 5732 5731 5729 5728 5725 5723 5721 5721 5721 5721 5719 5716 5713 5712 5711 5711 5710 5710 5710 5710 5710 5709 5708 5706 5705 5703 5702 5701 5700 5698 5695 5694 5693 5692 5690 5689 5684 5682 5686 5690 5693
5739 5736 5735 5732 5729 5728 5725 5722 5720 5719 5719 5719 5718 5716 5713 5711 5709 5708 5707 5706 5706 5707 5707 5706 5705 5704 5702 5701 5700 5699 5697 5695 5694 5692 5690 5688 5686 5684 5682 5678 5678 5680 5685
5741 5737 5734 5731 5729 5727 5725 5722 5719 5717 5717 5717 5716 5715 5714 5712 5710 5708 5706 5705 5703 5703 5704 5704 5703 5701 5700 5699 5697 5696 5694 5693 5691 5689 5687 5686 5685 5684 5681 5678 5675 5675 5677
5744 5741 5738 5734 5732 5729 5726 5723 5720 5717 5716 5715 5714 5714 5714 5712 5710 5709 5707 5705 5704 5703 5703 5702 5701 5700 5698 5697 5695 5693 5691 5690 5688 5687 5685 5683 5682 5682 5680 5677 5673 5669 5668
5746 5743 5740 5737 5735 5731 5728 5725 5722 5719 5717 5716 5715 5713 5713 5711 5710 5708 5707 5706 5705 5704 5702 5701 5699 5698 5696 5695 5693 5690 5689 5687 5685 5684 5682 5680 5679 5678 5677 5675 5673 5667 5661
5748 5746 5742 5740 5738 5735 5730 5727 5724 5721 5719 5717 5715 5714 5712 5711 5710 5708 5706 5705 5704 5703 5701 5699 5698 5696 5694 5692 5690 5688 5686 5684 5682 5681 5679 5677 5676 5675 5674 5672 5670 5667 5662
5752 5748 5746 5743 5739 5736 5731 5727 5724 5721 5719 5717 5716 5714 5712 5710 5709 5707 5706 5704 5703 5701 5699 5697 5696 5694 5692 5690 5688 5686 5684 5681 5680 5678 5677 5674 5673 5671 5670 5668 5666 5663 5660
5757 5753 5748 5744 5739 5735 5733 5729 5726 5723 5721 5719 5716 5714 5711 5710 5708 5706 5705 5703 5701 5700 5698 5696 5694 5692 5690 5688 5686 5684 5682 5679 5677 5675 5673 5671 5670 5668 5666 5664 5662 5659 5657
5756 5753 5749 5745 5742 5738 5734 5731 5728 5726 5723 5720 5716 5713 5710 5708 5707 5705 5704 5702 5700 5698 5697 5695 5692 5690 5689 5687 5685 5682 5680 5678 5676 5673 5671 5669 5667 5664 5662 5660 5658 5656 5655
5758 5754 5750 5748 5745 5741 5738 5734 5730 5728 5724 5720 5716 5713 5710 5708 5707 5704 5702 5701 5699 5697 5695 5693 5691 5689 5687 5685 5683 5681 5678 5676 5674 5672 5670 5668 5665 5662 5660 5657 5655 5653 5650
5759 5757 5754 5750 5747 5743 5739 5736 5732 5729 5726 5721 5716 5714 5711 5709 5706 5703 5701 5699 5698 5696 5694 5691 5689 5688 5685 5684 5681 5679 5677 5674 5671 5670 5668 5666 5664 5662 5659 5656 5653 5649 5645
5763 5761 5758 5754 5750 5746 5742 5738 5734 5731 5727 5722 5718 5715 5712 5708 5705 5703 5700 5697 5695 5693 5691 5689 5687 5685 5685 5684 5681 5678 5675 5672 5669 5666 5665 5664 5662 5661 5658 5656 5653 5649 5643
5768 5765 5762 5759 5756 5752 5748 5742 5738 5733 5728 5723 5719 5715 5712 5708 5705 5703 5699 5696 5693 5691 5689 5687 5686 5683 5682 5681 5679 5677 5673 5669 5667 5664 5662 5661 5661 5658 5655 5652 5650 5647 5644
5771 5769 5766 5762 5759 5756 5751 5746 5740 5734 5728 5723 5720 5716 5712 5708 5704 5701 5698 5695 5692 5689 5687 5685 5684 5681 5680 5679 5677 5674 5670 5667 5664 5662 5660 5658 5656 5655 5651 5648 5645 5643 5641
5776 5773 5771 5766 5762 5757 5752 5745 5738 5733 5728 5724 5720 5717 5713 5708 5704 5700 5697 5694 5691 5688 5686 5684 5682 5679 5678 5677 5674 5671 5666 5663 5661 5660 5658 5656 5653 5652 5649 5644 5640 5638 5637
5775 5773 5770 5764 5760 5757 5752 5744 5737 5733 5729 5726 5723 5719 5714 5709 5704 5700 5697 5694 5691 5688 5685 5682 5680 5678 5676 5675 5672 5668 5663 5659 5657 5656 5655 5653 5651 5649 5645 5640 5636 5633 5634
5774 5773 5768 5763 5760 5756 5750 5742 5736 5733 5732 5728 5723 5718 5713 5709 5705 5700 5696 5692 5689 5685 5682 5680 5678 5676 5675 5673 5670 5666 5660 5657 5654 5652 5650 5649 5648 5645 5642 5638 5634 5633 5631
5771 5770 5765 5760 5758 5754 5748 5740 5736 5736 5731 5725 5720 5715 5712 5708 5704 5697 5693 5690 5686 5682 5678 5675 5673 5673 5672 5670 5668 5664 5660 5657 5652 5649 5648 5646 5644 5641 5638 5634 5632 5630 5625
5768 5766 5762 5756 5753 5751 5747 5740 5737 5732 5727 5721 5716 5712 5708 5704 5701 5695 5690 5685 5682 5678 5675 5672 5669 5668 5668 5667 5665 5662 5658 5653 5649 5648 5646 5643 5640 5636 5633 5631 5628 5624 5619
5762 5761 5756 5750 5746 5745 5743 5739 5734 5729 5723 5717 5712 5708 5703 5699 5696 5692 5688 5683 5679 5675 5672 5669 5666 5664 5663 5662 5661 5658 5655 5651 5646 5643 5640 5637 5634 5631 5629 5626 5624 5620 5615
5755 5754 5749 5745 5741 5738 5735 5733 5729 5724 5718 5713 5709 5704 5700 5696 5691 5688 5686 5683 5680 5677 5672 5668 5665 5661 5659 5661 5659 5655 5650 5647 5643 5638 5633 5629 5626 5624 5622 5620 5618 5615 5611
5744 5742 5740 5737 5734 5732 5728 5726 5723 5719 5713 5707 5703 5699 5695 5691 5687 5682 5679 5679 5677 5675 5672 5668 5665 5662 5661 5659 5654 5650 5646 5642 5636 5630 5626 5623 5621 5618 5617 5614 5612 5610 5607